Location: *
(39.6167°S, 171.5333°W)
Time: 22:28:39
(UTC+00:00)

Cosmos 1634 Rocket - Pass Details

Date: 13 May 2021
Orbit: 960 x 992 km, 82.9° (Epoch: 15 June)

Event Time Altitude Azimuth Distance (km) Brightness Sun altitude
Rises 17:23:42 0° 334° (NNW) 3,676 6.9 -11.5°
Reaches altitude 10° 17:26:20 10° 327° (NNW) 2,741 6.2 -11.0°
Maximum altitude 17:32:15 42° 257° (WSW) 1,388 4.4 -9.9°
Drops below altitude 10° 17:38:18 10° 187° (S) 2,786 6.2 -8.8°
Sets 17:41:01 0° 179° (S) 3,743 6.9 -8.3°
